星链-3183 (STARLINK-3183 )

导读

STARLINK-3183是美国太空探索技术公司(SpaceX)星链卫星互联网项目的组网卫星,于2022年1月19日发射入轨,属于星链低轨星座的组成部分,承担为全球提供高速互联网接入服务的任务,依托低轨部署优势,可实现更低通信延迟,助力补全球面网络覆盖盲区,推动全球互联网络建设。

Basic Information
目录编号:
51134
目录名称:
STARLINK-3183
国际标识:
2022-005AG
轨道中心:
EARTH
卫星名称:
星链-3183
卫星全名:
星链-3183 (STARLINK-3183 )
卫星状态:
已陨落 最后检测时间 2025-11-16
发射日期:
2022-01-19 UTC
国别 :
美国 (US)
星等 :
--
Orbit Information
数据来源 国际轨道数据
星历时间: 2025-11-16T14:27:31+0800
轨道信息已过期213天
半长轴: 6553.127km
偏心率: 0.000458
轨道倾角: 53.202°
近地点辐角 311.903°
升交点赤经 61.549°
平近点角 48.162°
近地点: 171.99km
远地点: 177.994km
周期: 87.990分钟
每日圈数: 16.365524
Detailed Information
固有亮度:
5
最大亮度:
2.5
卫星平台:
Starlink v1.5
覆盖范围:
全球
运营商:
太空探索技术公司
运营商所在国:
美国
制造商(研发单位):
太空探索技术公司
制造商所在国:
美国
使用方式:
暂无
Satellite Introduction
星链(Starlink)计划是由太空探索技术公司(SpaceX)提出的一个巨型低轨卫星互联网星座项目,计划在2019年至2024年间在太空搭建由约1.2万颗卫星组成的“星链”网络,其中1584颗将部署在地球上空550千米处的近地轨道,并从2020年开始工作。该卫星仍在工作。